Zurück zum Katalog

STARLINK-30242

AktivKommunikationVLEO
NORAD 57739·PAYLOAD·🇺🇸 United States

Gestartet Sep 1, 2023 von Cape Canaveral Space Force Station

Loading…

Nächste Überflüge (nächste 24 Stunden)

TLE

AktuellSource: CelesTrak SupGP

Epoche: Sep 14, 2026, 21:47 UTC

1 57739C 23131H   26257.90812500 -.00038835  00000+0 -14068-2 0  2574
2 57739  42.9999 155.0491 0001366 267.4442 351.3189 15.27592329    11

Verfolge STARLINK-30242 in Echtzeit mit AllMySat

Download on the App Store